• In Belgien
  • Länderverzeichnis
  • Für 7 Tage
  • Wassertemperatur
  • Satellitenkarten
  • Wetterkarte
  • Widgets
  • user-avatar
    Anmelden

    Stündliche Wetter Julara

    Heute, 21 September, Donnerstag

    Zeit Temperatur Niederschläge Wind Luftdruck Luftfeuchtigkeit
    00:00 +24°C° 0 mm 3 m/S 716 mmHg 16%
    01:00 +24°C° 0 mm 3 m/S 716 mmHg 16%
    02:00 +22°C° 0 mm 3 m/S 715 mmHg 16%
    03:00 +22°C° 0 mm 3 m/S 715 mmHg 17%
    04:00 +21°C° 0 mm 3 m/S 715 mmHg 17%
    05:00 +21°C° 0 mm 3 m/S 715 mmHg 18%
    06:00 +20°C° 0 mm 3 m/S 715 mmHg 18%
    07:00 +25°C° 0 mm 4 m/S 716 mmHg 15%
    08:00 +28°C° 0 mm 6 m/S 716 mmHg 13%
    09:00 +33°C° 0 mm 6 m/S 717 mmHg 10%
    10:00 +34°C° 0 mm 7 m/S 717 mmHg 9%
    11:00 +36°C° 0 mm 7 m/S 716 mmHg 9%
    12:00 +39°C° 0 mm 8 m/S 716 mmHg 8%
    13:00 +39°C° 0 mm 8 m/S 715 mmHg 7%
    14:00 +39°C° 0 mm 8 m/S 715 mmHg 7%
    15:00 +40°C° 0 mm 8 m/S 714 mmHg 7%
    16:00 +38°C° 0 mm 7 m/S 714 mmHg 8%
    17:00 +36°C° 0 mm 6 m/S 714 mmHg 9%
    18:00 +34°C° 0 mm 4 m/S 714 mmHg 9%
    19:00 +33°C° 0 mm 4 m/S 714 mmHg 10%
    20:00 +30°C° 0 mm 4 m/S 715 mmHg 11%
    21:00 +28°C° 0 mm 4 m/S 715 mmHg 12%
    22:00 +28°C° 0 mm 4 m/S 715 mmHg 13%
    23:00 +27°C° 0 mm 4 m/S 715 mmHg 13%

    Morgen, 22 September, Freitag

    Zeit Temperatur Niederschläge Wind Luftdruck Luftfeuchtigkeit
    00:00 +26°C° 0 mm 4 m/S 715 mmHg 14%
    01:00 +25°C° 0 mm 4 m/S 715 mmHg 15%
    02:00 +24°C° 0 mm 3 m/S 714 mmHg 16%
    03:00 +24°C° 0 mm 3 m/S 714 mmHg 16%
    04:00 +22°C° 0 mm 3 m/S 714 mmHg 17%
    05:00 +21°C° 0 mm 3 m/S 715 mmHg 17%
    06:00 +21°C° 0 mm 3 m/S 715 mmHg 18%
    07:00 +25°C° 0 mm 3 m/S 715 mmHg 16%
    08:00 +28°C° 0 mm 3 m/S 716 mmHg 14%
    09:00 +30°C° 0 mm 3 m/S 716 mmHg 12%
    10:00 +33°C° 0 mm 4 m/S 716 mmHg 11%
    11:00 +35°C° 0 mm 4 m/S 716 mmHg 10%
    12:00 +37°C° 0 mm 5 m/S 716 mmHg 9%
    13:00 +39°C° 0 mm 6 m/S 715 mmHg 9%
    14:00 +39°C° 0 mm 7 m/S 714 mmHg 8%
    15:00 +40°C° 0 mm 9 m/S 713 mmHg 8%
    16:00 +39°C° 0 mm 8 m/S 713 mmHg 8%
    17:00 +36°C° 0 mm 7 m/S 713 mmHg 9%
    18:00 +35°C° 0 mm 6 m/S 713 mmHg 9%
    19:00 +34°C° 0 mm 5 m/S 714 mmHg 10%
    20:00 +32°C° 0 mm 5 m/S 714 mmHg 11%
    21:00 +29°C° 0 mm 4 m/S 714 mmHg 12%
    22:00 +28°C° 0 mm 5 m/S 714 mmHg 13%
    23:00 +28°C° 0 mm 5 m/S 714 mmHg 13%

    übermorgen, 23 September, Samstag

    Zeit Temperatur Niederschläge Wind Luftdruck Luftfeuchtigkeit
    00:00 +27°C° 0 mm 5 m/S 714 mmHg 14%
    01:00 +26°C° 0 mm 5 m/S 714 mmHg 15%
    02:00 +26°C° 0 mm 5 m/S 713 mmHg 15%
    03:00 +25°C° 0 mm 4 m/S 713 mmHg 16%
    04:00 +23°C° 0 mm 5 m/S 713 mmHg 17%
    05:00 +23°C° 0 mm 5 m/S 714 mmHg 18%
    06:00 +22°C° 0 mm 5 m/S 714 mmHg 18%
    07:00 +24°C° 0 mm 6 m/S 715 mmHg 22%
    08:00 +26°C° 0 mm 6 m/S 715 mmHg 25%
    09:00 +27°C° 0 mm 6 m/S 716 mmHg 29%
    10:00 +29°C° 0 mm 6 m/S 716 mmHg 26%
    11:00 +32°C° 0 mm 5 m/S 716 mmHg 22%
    12:00 +33°C° 0 mm 4 m/S 715 mmHg 19%
    13:00 +35°C° 0 mm 6 m/S 715 mmHg 17%
    14:00 +37°C° 0 mm 8 m/S 714 mmHg 14%
    15:00 +38°C° 0 mm 10 m/S 713 mmHg 12%
    16:00 +37°C° 0 mm 9 m/S 713 mmHg 12%
    17:00 +35°C° 0 mm 8 m/S 713 mmHg 13%
    18:00 +34°C° 0 mm 7 m/S 714 mmHg 14%
    19:00 +32°C° 0 mm 6 m/S 714 mmHg 16%
    20:00 +30°C° 0 mm 6 m/S 715 mmHg 18%
    21:00 +28°C° 0 mm 5 m/S 715 mmHg 19%
    22:00 +27°C° 0 mm 5 m/S 715 mmHg 20%
    23:00 +25°C° 0 mm 5 m/S 715 mmHg 21%

    24 September, Sonntag

    Zeit Temperatur Niederschläge Wind Luftdruck Luftfeuchtigkeit
    00:00 +23°C° 0 mm 5 m/S 715 mmHg 22%
    01:00 +22°C° 0 mm 4 m/S 715 mmHg 22%
    02:00 +21°C° 0 mm 4 m/S 714 mmHg 22%
    03:00 +20°C° 0 mm 4 m/S 714 mmHg 22%
    04:00 +20°C° 0 mm 4 m/S 714 mmHg 23%
    05:00 +19°C° 0 mm 3 m/S 714 mmHg 24%
    06:00 +18°C° 0 mm 3 m/S 715 mmHg 25%
    07:00 +21°C° 0 mm 4 m/S 715 mmHg 23%
    08:00 +23°C° 0 mm 4 m/S 716 mmHg 20%
    09:00 +27°C° 0 mm 5 m/S 716 mmHg 18%
    10:00 +29°C° 0 mm 5 m/S 716 mmHg 16%
    11:00 +32°C° 0 mm 5 m/S 715 mmHg 14%
    12:00 +35°C° 0 mm 6 m/S 715 mmHg 13%
    13:00 +36°C° 0 mm 7 m/S 714 mmHg 12%
    14:00 +38°C° 0 mm 8 m/S 713 mmHg 11%
    15:00 +39°C° 0 mm 10 m/S 712 mmHg 10%
    16:00 +38°C° 0 mm 9 m/S 712 mmHg 11%
    17:00 +36°C° 0 mm 7 m/S 712 mmHg 11%
    18:00 +35°C° 0 mm 6 m/S 712 mmHg 12%
    19:00 +33°C° 0 mm 6 m/S 713 mmHg 14%
    20:00 +30°C° 0 mm 5 m/S 713 mmHg 16%
    21:00 +28°C° 0 mm 4 m/S 714 mmHg 17%
    22:00 +27°C° 0 mm 4 m/S 713 mmHg 18%
    23:00 +27°C° 0 mm 4 m/S 713 mmHg 20%

    25 September, Montag

    Zeit Temperatur Niederschläge Wind Luftdruck Luftfeuchtigkeit
    00:00 +26°C° 0 mm 4 m/S 713 mmHg 21%
    01:00 +25°C° 0 mm 3 m/S 712 mmHg 21%
    02:00 +24°C° 0 mm 3 m/S 712 mmHg 22%
    03:00 +22°C° 0 mm 3 m/S 711 mmHg 23%
    04:00 +21°C° 0 mm 3 m/S 712 mmHg 24%
    05:00 +20°C° 0 mm 2 m/S 712 mmHg 26%
    06:00 +19°C° 0 mm 2 m/S 712 mmHg 27%
    07:00 +23°C° 0 mm 2 m/S 713 mmHg 24%
    08:00 +26°C° 0 mm 2 m/S 713 mmHg 20%
    09:00 +28°C° 0 mm 2 m/S 714 mmHg 16%
    10:00 +32°C° 0 mm 5 m/S 714 mmHg 14%
    11:00 +34°C° 0 mm 7 m/S 713 mmHg 12%
    12:00 +38°C° 0 mm 10 m/S 713 mmHg 10%
    13:00 +38°C° 0 mm 11 m/S 712 mmHg 9%
    14:00 +39°C° 0 mm 12 m/S 712 mmHg 9%
    15:00 +39°C° 0 mm 13 m/S 711 mmHg 8%
    16:00 +38°C° 0 mm 11 m/S 711 mmHg 8%
    17:00 +37°C° 0 mm 10 m/S 712 mmHg 7%
    18:00 +34°C° 0 mm 8 m/S 712 mmHg 6%
    19:00 +33°C° 0 mm 7 m/S 712 mmHg 7%
    20:00 +30°C° 0 mm 6 m/S 713 mmHg 9%
    21:00 +28°C° 0 mm 5 m/S 713 mmHg 10%
    22:00 +27°C° 0 mm 5 m/S 713 mmHg 11%
    23:00 +26°C° 0 mm 5 m/S 713 mmHg 12%

    26 September, Dienstag

    Zeit Temperatur Niederschläge Wind Luftdruck Luftfeuchtigkeit
    00:00 +25°C° 0 mm 5 m/S 713 mmHg 13%
    01:00 +25°C° 0 mm 5 m/S 712 mmHg 15%
    02:00 +23°C° 0 mm 5 m/S 712 mmHg 17%
    03:00 +23°C° 0 mm 4 m/S 712 mmHg 19%
    04:00 +22°C° 0 mm 5 m/S 712 mmHg 21%
    05:00 +22°C° 0 mm 5 m/S 713 mmHg 23%
    06:00 +22°C° 0 mm 5 m/S 713 mmHg 25%
    07:00 +24°C° 0 mm 7 m/S 713 mmHg 24%
    08:00 +28°C° 0 mm 9 m/S 714 mmHg 22%
    09:00 +31°C° 0 mm 11 m/S 714 mmHg 21%
    10:00 +33°C° 0 mm 12 m/S 714 mmHg 19%
    11:00 +36°C° 0 mm 13 m/S 714 mmHg 17%
    12:00 +37°C° 0 mm 13 m/S 714 mmHg 15%
    13:00 +38°C° 0 mm 14 m/S 713 mmHg 15%
    14:00 +38°C° 0 mm 14 m/S 712 mmHg 15%
    15:00 +40°C° 0 mm 14 m/S 712 mmHg 14%
    16:00 +37°C° 0 mm 12 m/S 712 mmHg 16%
    17:00 +36°C° 0 mm 10 m/S 712 mmHg 17%
    18:00 +34°C° 0 mm 9 m/S 713 mmHg 19%
    19:00 +33°C° 0 mm 7 m/S 713 mmHg 22%
    20:00 +30°C° 0 mm 6 m/S 714 mmHg 24%
    21:00 +29°C° 0 mm 5 m/S 714 mmHg 27%
    22:00 +28°C° 0 mm 5 m/S 714 mmHg 28%
    23:00 +27°C° 0 mm 4 m/S 714 mmHg 30%
    Mehr zeigen